Find Starlink 2241

NORAD ID: 48586 Int'l Des: 2021-041 Owner: SPXS Country: US Constellation: starlink operational
LEOCIRCULARSTARLINK_TYPE

リアルタイム位置

3D地球を読み込み中...

Starlink 2241について

説明を読み込み中...

次回通過

Passes for default location (London). Set your location on the main map for personalized predictions.

高度履歴

Loading altitude history...

軌道要素

1 48586U 21041AK 26106.88989611 .00000110 00000-0 26287-4 0 9995
2 48586 53.0540 330.1301 0001545 91.6953 268.4213 15.06403641270813
Epoch: Apr 16, 2026 • Age: 10 hours

現在のステータス

高度 553.1 km
速度 7.59 km/s
衛星直下点 -19.77°S, 158.94°W
打ち上げ日 May 15, 2021
運用期間 4.9 years
タイプ internet

技術仕様

分類 Payload
質量 260.00 kg
乾燥質量 248.00 kg
総質量 260.00 kg
長さ 0.20 m
直径 2.80 m
スパン 9.00 m
形状 Box + pan
製造者 SPXS
バスタイプ Starlink
フェーズステータス In Orbit
所有者/国 SPXS/US

Most Searched